OPTUS C1

Last updated on Sun Nov 16 2025 00:03:40 GMT+0000 (Coordinated Universal Time)

1 27831U 03028B 25319.19755372 -.00000142 00000+0 00000+0 0 9999 2 27831 6.3534 71.9980 0006002 165.4805 43.9588 1.00272323 50917
UTC large
Height (km)
Speed (km/s)
/
Latitude / Longitude
Inclination (degrees)
Orbital Period (minutes)
Azimuth
Elevation
Range (km)
Doppler Factor

Next 0 passes for location: London (51.5072 / 0.1276)

Sorry there are no passes over London.